Shelbyville, IN

12:19 PM EST on February 26, 2017 (GMT -0500)
Shelbyville Municipal

Weather History for KGEZ - December, 2013

Change the Weather History Date:

Tuesday, December 24, 2013

  Actual Average Record
Temperature  
Mean Temperature 16 °F 30 °F  
Max Temperature 21 °F 37 °F 58 °F (2015)
Min Temperature 10 °F 22 °F -20 °F (2004)
Degree Days  
Heating Degree Days 49 35  
Month to date heating degree days 789 779  
Since 1 July heating degree days 1855 1854  
Cooling Degree Days 0 0  
Month to date cooling degree days 0 0  
Year to date cooling degree days 1179 913  
Moisture  
Dew Point 6 °F    
Average Humidity 67    
Maximum Humidity 73    
Minimum Humidity 61    
Precipitation  
Precipitation T in 0.13 in 0.84 in (2008)
Month to date precipitation 5.88 2.48  
Year to date precipitation 35.12 42.77  
Sea Level Pressure  
Sea Level Pressure 30.52 in    
Wind  
Wind Speed 9 mph (WNW)    
Max Wind Speed 21 mph    
Max Gust Speed 24 mph    
Visibility 10 miles    
Events Snow    
T = Trace of Precipitation, MM = Missing Value Source: NWS Daily Summary

Daily Weather History Graph

Daily Weather History Graph

Search for Another Location

Airport or City:

Trip Planner

Search our weather history database for the weather conditions in past years. The results will help you decide how hot, cold, wet, or windy it might be!

Date:

Astronomy

Dec. 24, 2013 Rise Set
Actual Time 8:01 AM EST 5:24 PM EST
Civil Twilight 7:31 AM EST 5:54 PM EST
Nautical Twilight 6:57 AM EST 6:28 PM EST
Astronomical Twilight 6:24 AM EST 7:01 PM EST
Moon No Moon Rise 11:56 AM EST (12/24)
Length of Visible Light 10h 23m
Length of Day
9h 22m
Waning Gibbous, 59% of the Moon is Illuminated
Dec 24
Waning Gibbous
Dec 25
Last Quarter
Jan 1
New
Jan 7
First Quarter
Jan 15
Full

Hourly Weather History & Observations

Time (EST) Temp. Windchill Dew Point Humidity Pressure Visibility Wind Dir Wind Speed Gust Speed Precip Events Conditions
12:53 AM 19.0 °F 4.5 °F 9.0 °F 65% 30.45 in 10.0 mi NW 16.1 mph 23.0 mph 0.00 in   Mostly Cloudy
1:00 AM 19.0 °F 4.5 °F 9.0 °F 65% 30.42 in 10.0 mi NW 16.1 mph - N/A   Mostly Cloudy
1:26 AM 18.0 °F 4.2 °F 9.0 °F 68% 30.42 in 10.0 mi WNW 13.8 mph 20.7 mph N/A   Mostly Cloudy
1:53 AM 17.1 °F 3.0 °F 8.1 °F 68% 30.45 in 10.0 mi NW 13.8 mph - N/A   Partly Cloudy
2:49 AM 15.8 °F 2.7 °F 6.8 °F 68% 30.43 in 10.0 mi WNW 11.5 mph - N/A   Mostly Cloudy
2:53 AM 16.0 °F 4.4 °F 7.0 °F 68% 30.47 in 10.0 mi WNW 9.2 mph - N/A   Mostly Cloudy
3:53 AM 15.1 °F 0.5 °F 5.0 °F 64% 30.48 in 10.0 mi West 13.8 mph - N/A   Partly Cloudy
4:34 AM 14.0 °F 0.5 °F 5.0 °F 67% 30.44 in 10.0 mi West 11.5 mph - N/A   Mostly Cloudy
4:41 AM 14.0 °F 0.5 °F 5.0 °F 67% 30.44 in 10.0 mi WNW 11.5 mph - N/A   Mostly Cloudy
4:53 AM 14.0 °F -1.4 °F 5.0 °F 67% 30.48 in 10.0 mi West 15.0 mph - N/A   Overcast
5:53 AM 12.9 °F -0.2 °F 5.0 °F 71% 30.50 in 10.0 mi West 10.4 mph - N/A   Overcast
6:53 AM 12.9 °F -0.9 °F 3.9 °F 67% 30.52 in 10.0 mi West 11.5 mph - N/A   Overcast
7:23 AM 12.0 °F -1.3 °F 6.1 °F 77% 30.49 in 2.0 mi NW 10.4 mph - 0.00 in Snow Light Snow
7:32 AM 12.0 °F -2.0 °F 5.0 °F 73% 30.50 in 5.0 mi WNW 11.5 mph - 0.00 in Snow Light Snow
7:51 AM 10.4 °F -4.1 °F 3.2 °F 73% 30.51 in 10.0 mi WNW 11.5 mph - 0.00 in   Overcast
7:53 AM 10.9 °F -3.4 °F 3.9 °F 73% 30.55 in 10.0 mi WNW 11.5 mph - 0.00 in   Overcast
8:11 AM 10.9 °F -3.4 °F 3.9 °F 73% 30.51 in 8.0 mi NW 11.5 mph - N/A   Overcast
8:49 AM 10.4 °F -3.3 °F 3.2 °F 73% 30.52 in 10.0 mi WNW 10.4 mph - N/A   Scattered Clouds
8:53 AM 10.9 °F -1.8 °F 3.9 °F 73% 30.56 in 10.0 mi WNW 9.2 mph - N/A   Scattered Clouds
9:00 AM 10.9 °F -2.6 °F 3.0 °F 70% 30.53 in 9.0 mi WNW 10.4 mph - N/A   Mostly Cloudy
9:25 AM 10.9 °F -2.6 °F 3.0 °F 70% 30.54 in 9.0 mi WNW 10.4 mph - 0.00 in   Overcast
9:53 AM 10.9 °F -2.6 °F 3.0 °F 70% 30.59 in 7.0 mi WNW 10.4 mph - 0.00 in   Overcast
10:21 AM 12.0 °F -0.4 °F 3.0 °F 67% 30.54 in 9.0 mi WNW 9.2 mph - N/A   Overcast
10:51 AM 12.2 °F -0.2 °F 3.2 °F 67% 30.55 in 10.0 mi NNW 9.2 mph - N/A   Mostly Cloudy
10:53 AM 12.9 °F 1.6 °F 3.9 °F 67% 30.60 in 10.0 mi NW 8.1 mph - N/A   Mostly Cloudy
11:16 AM 12.9 °F 2.6 °F 3.9 °F 67% 30.56 in 10.0 mi West 6.9 mph - N/A   Scattered Clouds
11:34 AM 12.9 °F 2.6 °F 3.9 °F 67% 30.57 in 10.0 mi Variable 6.9 mph - N/A   Mostly Cloudy
11:53 AM 14.0 °F 2.0 °F 5.0 °F 67% 30.60 in 10.0 mi WNW 9.2 mph - N/A   Mostly Cloudy
12:11 PM 15.1 °F 5.2 °F 5.0 °F 64% 30.55 in 10.0 mi West 6.9 mph - N/A   Scattered Clouds
12:53 PM 17.1 °F 6.6 °F 7.0 °F 65% 30.60 in 10.0 mi WNW 8.1 mph - N/A   Clear
1:53 PM 17.1 °F 10.0 °F 7.0 °F 65% 30.58 in 10.0 mi West 4.6 mph - N/A   Clear
2:53 PM 19.0 °F 12.3 °F 8.1 °F 62% 30.57 in 10.0 mi Variable 4.6 mph - N/A   Clear
3:53 PM 19.0 °F 13.9 °F 9.0 °F 65% 30.58 in 10.0 mi West 3.5 mph - N/A   Clear
4:53 PM 19.9 °F 14.9 °F 9.0 °F 62% 30.56 in 10.0 mi SE 3.5 mph - N/A   Clear
5:53 PM 19.0 °F 13.9 °F 9.0 °F 65% 30.57 in 10.0 mi SSW 3.5 mph - N/A   Clear
6:53 PM 19.0 °F 10.0 °F 10.9 °F 71% 30.56 in 10.0 mi SSE 6.9 mph - N/A   Clear
7:53 PM 19.0 °F 11.1 °F 10.0 °F 68% 30.56 in 10.0 mi SE 5.8 mph - N/A   Clear
8:53 PM 19.0 °F 12.3 °F 10.9 °F 71% 30.56 in 10.0 mi SE 4.6 mph - N/A   Clear
9:53 PM 19.0 °F 9.0 °F 10.9 °F 71% 30.54 in 10.0 mi SE 8.1 mph - N/A   Clear
10:53 PM 19.0 °F 9.0 °F 10.9 °F 71% 30.52 in 10.0 mi SE 8.1 mph - N/A   Clear
11:53 PM 19.9 °F 8.6 °F 12.0 °F 71% 30.48 in 10.0 mi SE 10.4 mph - N/A   Mostly Cloudy